星链-2393 (STARLINK-2393 )

导读 | 豆包AI

STARLINK-2393是美国SpaceX公司星链星座中的一颗低轨通信卫星,于2021年3月11日发射升空,属于星链第一代V1.5批次卫星。它运行在高度约340-614公里的近地轨道,配备相控阵天线与氪离子推进系统,承担全球高速互联网接入服务,为偏远地区、特殊场景提供低延迟宽带通信支持,是星链全球覆盖星座的组成部分。

Basic Information
目录编号:
47812
目录名称:
STARLINK-2393
国际标识:
2021-018AB
轨道中心:
EARTH
卫星名称:
星链-2393
卫星全名:
星链-2393 (STARLINK-2393 )
卫星状态:
已陨落 最后检测时间 2026-01-04
发射日期:
2021-03-11 UTC
国别 :
美国 (US)
星等 :
--
Orbit Information
数据来源 国际轨道数据
星历时间: 2026-01-04T21:34:40+0800
轨道信息已过期69天
半长轴: 6534.875km
偏心率: 0.000399
轨道倾角: 53.029°
近地点辐角 276.015°
升交点赤经 148.350°
平近点角 84.045°
近地点: 154.13km
远地点: 159.346km
周期: 87.622分钟
每日圈数: 16.434138
Detailed Information
固有亮度:
5
最大亮度:
2.5
卫星平台:
Starlink V1.0
覆盖范围:
全球
运营商:
太空探索技术公司
运营商所在国:
美国
制造商(研发单位):
太空探索技术公司
制造商所在国:
美国
使用方式:
暂无
Satellite Introduction
星链(Starlink)计划是由太空探索技术公司(SpaceX)提出的一个巨型低轨卫星互联网星座项目,计划在2019年至2024年间在太空搭建由约1.2万颗卫星组成的“星链”网络,其中1584颗将部署在地球上空550千米处的近地轨道,并从2020年开始工作。该卫星仍在工作。